Home > Weather > Nürtingen > Past weeks

Flag for Germany Weather for the Past 2 Weeks in Nürtingen, Baden-Württemberg, Germany

Now
55 °F

Passing clouds.


Feels Like: 54 °F
Forecast: 33 / 59 °F
Wind: 7 mph from West

Location: Stuttgart-Echterdingen

Current Time: Apr 29, 2016 at 3:09:55 PM

Latest Report: Apr 29, 2016 at 2:20 PM


Visibility: N/A

Pressure: 30.04 "Hg

Humidity: 41%

Dew Point: 32 °F

Location of NürtingenLocation

Historic Weather in Nürtingen — Graph

°F

Nürtingen Temperature Yesterday

Maximum temperature yesterday: 46 °F (at 4:20 PM)
Minimum temperature yesterday: 32 °F (at 2:20 AM)
Average temperature yesterday: 39 °F

High & Low Weather Summary for the Past Weeks

 TemperatureHumidityPressure
High68 °F (Apr 21, 3:50 PM)100% (Apr 16, 4:20 AM)30.39 "Hg (Apr 16, 4:20 AM)
Low30 °F (Apr 29, 3:50 AM)24% (Apr 21, 6:20 PM)29.56 "Hg (Apr 26, 5:50 AM)
Average46 °F74%29.95 "Hg
* Reported Apr 14 1:20 PM — Apr 29 1:50 PM, Nürtingen, Weather by CustomWeather, © 2016

Note: Actual official high and low records may vary slightly from our data, if they occured in-between our weather recording intervals... More about our weather records

Advertising

Nürtingen Weather History for the Previous 24 Hours

Scroll right to see more
 ConditionsComfort  
Time TempWeatherWind HumidityBarometerVisibility
1:50 PM
Fri, Apr 29
54 °FSunny.5 mph38%30.04 "Hg10 mi
1:20 PM52 °FPartly sunny.9 mph44%30.04 "HgN/A
12:50 PM54 °FPartly sunny.8 mph41%30.04 "HgN/A
12:20 PM52 °FPartly sunny.10 mph41%30.04 "HgN/A
11:50 AM52 °FPartly sunny.8 mph44%30.07 "HgN/A
11:20 AM52 °FPartly sunny.7 mph47%30.07 "HgN/A
10:50 AM50 °FScattered clouds.3 mph50%30.07 "HgN/A
10:20 AM50 °FPassing clouds.3 mph58%30.07 "HgN/A
9:50 AM46 °FPassing clouds.3 mph71%30.07 "HgN/A
9:20 AM43 °FPassing clouds.3 mph76%30.07 "HgN/A
8:50 AM39 °FSunny.2 mph87%30.07 "Hg10 mi
8:20 AM36 °FPassing clouds.3 mph93%30.07 "HgN/A
7:20 AM30 °FSunny.2 mph100%30.07 "Hg10 mi
6:50 AM30 °FClear.1 mph100%30.04 "Hg10 mi
6:20 AM30 °FFog.1 mph100%30.04 "HgN/A
5:50 AM30 °FFog.1 mph93%30.04 "HgN/A
5:20 AM30 °FClear.1 mph93%30.04 "Hg10 mi
4:20 AM30 °FClear.1 mph93%30.04 "Hg10 mi
3:50 AM30 °FClear.1 mph93%30.04 "Hg10 mi
3:20 AM32 °FClear.No wind93%30.04 "Hg10 mi
2:50 AM32 °FClear.2 mph93%30.04 "Hg10 mi
2:20 AM32 °FClear.1 mph93%30.04 "Hg10 mi
1:50 AM32 °FClear.No wind93%30.04 "Hg10 mi
1:20 AM34 °FClear.1 mph87%30.04 "Hg10 mi
12:50 AM34 °FClear.3 mph81%30.04 "Hg10 mi
12:20 AM36 °FClear.No wind87%30.04 "Hg10 mi
11:50 PM
Thu, Apr 28
36 °FClear.1 mph87%30.04 "Hg10 mi
11:20 PM37 °FClear.2 mph81%30.04 "Hg10 mi
10:50 PM37 °FClear.5 mph81%30.04 "Hg10 mi
10:20 PM39 °FClear.2 mph75%30.04 "Hg10 mi
9:50 PM41 °FClear.3 mph70%30.04 "Hg10 mi
9:20 PM43 °FSunny.1 mph66%30.04 "Hg10 mi
8:50 PM43 °FSunny.1 mph71%30.01 "Hg10 mi
8:20 PM45 °FSunny.1 mph66%30.01 "Hg10 mi
7:50 PM46 °FSunny.2 mph62%30.01 "Hg10 mi
7:20 PM46 °FSunny.2 mph66%30.01 "Hg10 mi
6:50 PM46 °FPassing clouds.3 mph66%30.01 "HgN/A
6:20 PM46 °FScattered clouds.6 mph66%30.01 "HgN/A
5:50 PM46 °FScattered clouds.6 mph66%30.01 "HgN/A
5:20 PM46 °FScattered clouds.5 mph71%29.98 "HgN/A
4:50 PM46 °FScattered clouds.5 mph66%29.98 "HgN/A
4:20 PM46 °FScattered clouds.3 mph66%29.98 "HgN/A
3:50 PM45 °FScattered clouds.3 mph76%30.01 "HgN/A
3:20 PM43 °FScattered clouds.6 mph81%30.01 "HgN/A
Weather by CustomWeather, © 2016

See weather overviewHow to use our weather pages